[[{"header":{"parameterUnit":"m.s-1","parameterCategory":1,"la1":30.2991,"la2":30.254,"lo1":-89.0895,"lo2":-89.0444,"dy":0.0017,"dx":0.0017,"nx":28,"ny":28,"refTime":"2024-08-30T09:00:00:Z","depth":0,"parameterNumber":2,"parameterNumberName":"U-component_of_WINDS"},"data":[0,0,0,0,0,0,0,0,0,0,0,0,0,0,0,0,0,0,0,0,0,0,0,0,0,0,0,0,0,0,0,0,0,0,0,0,0,0,0,0,0,0,0,0,0,0,0,0,0,0,0,0,0,0,0,0,0,0,-3.0071,-3.007,0,-3.004,-3.004,-3.0039,-2.9946,-2.9944,-2.9942,-2.994,-2.9911,-2.9912,-2.9914,0,0,0,0,0,0,0,0,0,0,0,0,0,-3.0051,-3.0051,-3.0071,-3.007,-3.007,-3.004,-3.004,-3.0039,-2.9947,-2.9944,-2.9942,-2.9939,-2.9911,-2.9912,-2.9914,0,0,0,0,0,0,0,0,0,0,0,0,0,-3.0044,-3.0052,-3.0071,-3.002,-3.0015,-3.004,-3.004,-3.0039,-2.9947,-2.9944,-2.9941,-2.9938,-2.9911,-2.9912,-2.9914,-2.9986,0,0,-2.9919,-2.992,0,0,0,0,0,0,0,0,-3.0044,-3.0045,-3.0028,-3.0024,-3.0018,-2.9994,-3.0022,-3.0021,-2.9948,-2.9973,-2.994,-2.9937,-2.9941,-2.994,-2.9941,-2.9985,-2.9983,-2.9919,-2.992,-2.9921,-2.9921,0,0,0,0,0,0,0,-3.0045,-3.0045,-3.0059,-3.0028,-3.0022,-2.9999,-2.9995,-3.0021,-2.9975,-2.9971,-2.9964,-2.9961,-2.9938,-2.994,-2.994,-2.9983,-2.9919,-2.9921,-2.9922,-2.9922,-3.0081,-3.0084,0,0,0,0,0,0,-3.0052,-3.0046,-3.0059,-3.0058,-3.0024,-3.0002,-2.9997,-3.0005,-2.9974,-2.9967,-2.9964,-2.9957,-2.9939,-2.9938,-2.9939,-3.0018,-2.9921,-2.9923,-2.9924,-3.0078,-3.0082,-3.0085,0,0,0,0,0,0,-3.0052,-3.0054,-3.0061,-3.005,-3.0049,-3.0006,-3.0015,-3.0006,-3.0007,-2.9969,-2.9961,-2.9974,-2.9936,-2.9936,-2.9974,-3.0016,-2.9923,-2.9925,-3.0074,-3.0079,-3.0084,-3.0181,0,0,0,0,0,0,-3.0052,-3.0055,-3.0081,-3.0051,-3.005,-3.0096,-3.0018,-3.0007,-3.001,-3.0001,-2.9977,-2.997,-2.9934,-2.9972,-2.9976,-3.0017,-2.9926,-3.007,-3.0077,-3.0082,-3.0173,-3.0188,-3.0201,0,0,0,0,0,-3.0052,-3.0111,-3.0083,-3.0085,-3.0082,-3.0099,-3.0098,-3.0055,-3.0014,-3.004,-3.0016,-2.997,-3.0012,-2.9977,-2.998,-3.0023,-3.0067,-3.0075,-3.0082,-3.0167,-3.0185,-3.02,0,0,0,0,0,0,-3.0148,-3.0106,-3.0075,-3.0126,-3.0117,-3.0083,-3.0115,-3.0076,-3.0078,-3.007,-3.0017,-3.0012,-3.0057,-3.0044,-3.0006,-3.009,-3.0032,-3.004,-3.0096,-3.0113,-3.0126,-3.0127,-2.9928,0,0,0,0,0,-3.0176,-3.0192,-3.0155,-3.0204,-3.02,-3.0159,-3.0165,-3.0132,-3.012,-3.0116,-3.0094,-3.0086,-3.0096,-3.0104,-3.0112,-3.0172,-3.0164,-3.0203,-3.0217,-3.0228,-3.0235,-3.0263,-3.0279,-3.0109,-3.0109,-3.0109,0,0,-3.0232,-3.0211,-3.0225,-3.0222,-3.0211,-3.0229,-3.0156,-3.0179,-3.0192,-3.012,-3.0153,-3.0137,-3.0124,-3.0172,-3.0193,-3.0163,-3.0281,-3.0237,-3.0247,-3.0247,-3.0273,-3.0289,-3.0303,-3.0114,-3.0113,-3.0112,0,0,-3.0343,-3.033,-3.0368,-3.0358,-3.0341,-3.0313,-3.0323,-3.0295,-3.0281,-3.0314,-3.0259,-3.0275,-3.0295,-3.0287,-3.0285,-3.0393,-3.0351,-3.0398,-3.0468,-3.0496,-3.051,-3.0521,-3.0557,-3.0571,-3.0405,-3.0406,-3.0406,0,-3.0415,-3.0439,-3.0393,-3.0418,-3.0418,-3.0353,-3.0391,-3.0384,-3.0372,-3.0373,-3.034,-3.0362,-3.0349,-3.0394,-3.042,-3.0422,-3.043,-3.0399,-3.0512,-3.0523,-3.0533,-3.0566,-3.058,-3.0411,-3.0411,-3.041,-3.0409,0,-3.0528,-3.0546,-3.0579,-3.0566,-3.057,-3.0602,-3.056,-3.057,-3.0538,-3.0513,-3.0547,-3.0528,-3.053,-3.0539,-3.0509,-3.0579,-3.0561,-3.0521,-3.0461,-3.0555,-3.0586,-3.0599,-3.0419,-3.0417,-3.0415,-3.0414,0,0,-3.0698,-3.0658,-3.0671,-3.0663,-3.0641,-3.0654,-3.0683,-3.0683,-3.0692,-3.0686,-3.0708,-3.0726,-3.0688,-3.0687,-3.0655,-3.0681,-3.0764,-3.0637,-3.0636,-3.0658,-3.0838,-3.0866,-3.0882,-3.0737,-3.0739,-3.0741,-3.0838,0,-3.08,-3.0845,-3.0804,-3.0857,-3.0872,-3.0811,-3.0836,-3.0825,-3.0803,-3.0813,-3.0789,-3.0802,-3.0752,-3.0751,-3.0773,-3.0749,-3.0799,-3.0742,-3.0755,-3.0756,-3.0757,-3.0898,-3.0928,-3.102,-3.085,-3.0852,-3.0854,0,-3.0926,-3.0923,-3.0978,-3.0949,-3.0954,-3.0977,-3.0973,-3.0984,-3.097,-3.0953,-3.0951,-3.0911,-3.0938,-3.0882,-3.0916,-3.0879,-3.0882,-3.0871,-3.0874,-3.0871,-3.0808,-3.0896,-3.1049,-3.1061,-3.0872,-3.0871,-3.087,0,-3.104,-3.1051,-3.1084,-3.1081,-3.1049,-3.1066,-3.1055,-3.1037,-3.104,-3.1038,-3.1039,-3.1041,-3.1041,-3.1044,-3.1005,-3.0969,-3.1044,-3.0986,-3.1029,-3.103,-3.1045,-3.1044,-3.1198,-3.1053,-3.1053,-3.1053,-3.1053,0,-3.1157,-3.1192,-3.1135,-3.1155,-3.1192,-3.1145,-3.1183,-3.1165,-3.115,-3.1166,-3.1115,-3.1131,-3.1081,-3.1092,-3.1063,-3.1095,-3.1096,-3.1082,-3.1073,-3.1085,-3.1086,-3.1084,-3.1075,-3.1056,-3.1056,-3.1055,-3.1054,0,-3.1291,-3.1254,-3.1285,-3.1253,-3.1245,-3.1274,-3.1246,-3.1264,-3.1239,-3.1259,-3.1261,-3.1222,-3.1232,-3.1195,-3.12,-3.118,-3.1226,-3.1208,-3.123,-3.1223,-3.1268,-3.1263,-3.1422,-3.144,-3.1288,-3.1289,-3.129,0,-3.1366,-3.1391,-3.1361,-3.1367,-3.1357,-3.1368,-3.137,-3.1325,-3.1329,-3.1314,-3.1333,-3.1339,-3.134,-3.1359,-3.1331,-3.1334,-3.1314,-3.137,-3.1314,-3.1324,-3.1311,-3.1309,-3.131,-3.1381,-3.1383,-3.1384,-3.1385,0,-3.1504,-3.1484,-3.1488,-3.1485,-3.1489,-3.1485,-3.1478,-3.1486,-3.1437,-3.1445,-3.1453,-3.1455,-3.1458,-3.1463,-3.146,-3.1448,-3.1409,-3.1404,-3.1413,-3.1423,-3.1434,-3.1426,-3.1258,-3.1399,-3.1398,-3.1397,-3.1396,-3.1396,-3.1608,-3.1626,-3.1607,-3.1613,-3.1603,-3.1597,-3.1611,-3.1587,-3.1593,-3.1591,-3.1565,-3.1578,-3.1563,-3.1554,-3.1546,-3.1556,-3.153,-3.1545,-3.1548,-3.1551,-3.1558,-3.1435,-3.1556,-3.1555,-3.1555,-3.1555,-3.1554,0,-3.174,-3.1724,-3.173,-3.1721,-3.1726,-3.1688,-3.1677,-3.1684,-3.1696,-3.1684,-3.1686,-3.1696,-3.1701,-3.1674,-3.1675,-3.1688,-3.167,-3.169,-3.1687,-3.1684,-3.1582,-3.1572,-3.1704,-3.1704,-3.1704,-3.1704,-3.1704,-3.1704,-3.1809,-3.1837,-3.1815,-3.1838,-3.1822,-3.1833,-3.1831,-3.1825,-3.1815,-3.1827,-3.183,-3.1812,-3.1794,-3.1794,-3.1797,-3.1788,-3.179,-3.1816,-3.1801,-3.1706,-3.1692,-3.1678,-3.1668,-3.1817,-3.1818,-3.1902,-3.1902,-3.1903]},{"header":{"parameterUnit":"m.s-1","parameterCategory":1,"la1":30.2991,"la2":30.254,"lo1":-89.0895,"lo2":-89.0444,"dy":0.0017,"dx":0.0017,"nx":28,"ny":28,"refTime":"2024-08-30T09:00:00:Z","depth":0,"parameterNumber":3,"parameterNumberName":"V-component_of_WINDS"},"data":[0,0,0,0,0,0,0,0,0,0,0,0,0,0,0,0,0,0,0,0,0,0,0,0,0,0,0,0,0,0,0,0,0,0,0,0,0,0,0,0,0,0,0,0,0,0,0,0,0,0,0,0,0,0,0,0,0,0,1.563,1.5629,0,1.5518,1.5517,1.5516,1.5374,1.5372,1.537,1.5368,1.5252,1.5251,1.525,0,0,0,0,0,0,0,0,0,0,0,0,0,1.5719,1.5718,1.563,1.5629,1.5627,1.5519,1.5517,1.5516,1.5375,1.5372,1.5369,1.5367,1.5252,1.5251,1.525,0,0,0,0,0,0,0,0,0,0,0,0,0,1.5651,1.5718,1.563,1.5544,1.5535,1.5519,1.5517,1.5515,1.5375,1.5372,1.5368,1.5365,1.5253,1.5251,1.525,1.5309,0,0,1.5245,1.5245,0,0,0,0,0,0,0,0,1.5655,1.5648,1.5558,1.555,1.554,1.5457,1.5506,1.5446,1.5376,1.5436,1.5368,1.5364,1.5323,1.5315,1.5302,1.5304,1.5299,1.5245,1.5244,1.5244,1.5243,0,0,0,0,0,0,0,1.566,1.5652,1.5586,1.5557,1.5546,1.551,1.5497,1.5494,1.54,1.543,1.542,1.5409,1.5317,1.5304,1.5298,1.5297,1.5245,1.5244,1.5243,1.5242,1.534,1.5344,0,0,0,0,0,0,1.5678,1.5657,1.5589,1.5582,1.5591,1.5511,1.5496,1.5487,1.5399,1.5383,1.5412,1.5403,1.5308,1.53,1.5293,1.5356,1.5244,1.5242,1.5241,1.5337,1.5341,1.5345,0,0,0,0,0,0,1.5681,1.5673,1.5594,1.5617,1.5604,1.5513,1.5504,1.5487,1.5473,1.5385,1.5368,1.5415,1.5305,1.5295,1.5306,1.535,1.5242,1.524,1.5333,1.5338,1.5343,1.5484,0,0,0,0,0,0,1.5684,1.5675,1.5697,1.5618,1.5603,1.561,1.5507,1.5487,1.5471,1.5458,1.5384,1.5368,1.5301,1.5309,1.5305,1.5346,1.5239,1.5329,1.5335,1.5341,1.5475,1.5493,1.5509,0,0,0,0,0,1.5687,1.5741,1.5699,1.5692,1.5629,1.5612,1.5604,1.5526,1.5475,1.5496,1.544,1.5371,1.5347,1.5311,1.5305,1.5347,1.5325,1.5333,1.5341,1.5467,1.5489,1.5508,0,0,0,0,0,0,1.5827,1.5729,1.5682,1.5711,1.5671,1.5588,1.5613,1.5552,1.5525,1.5514,1.5418,1.5402,1.5425,1.5386,1.5349,1.5399,1.5326,1.5333,1.5423,1.5444,1.5461,1.5469,1.5238,0,0,0,0,0,1.5862,1.5857,1.5771,1.5806,1.5788,1.5704,1.5694,1.5637,1.5592,1.5574,1.5518,1.5476,1.5458,1.5449,1.5428,1.5468,1.545,1.5494,1.5511,1.5526,1.5533,1.555,1.5569,1.5371,1.5371,1.537,0,0,1.5932,1.5878,1.5881,1.5832,1.5794,1.5791,1.5691,1.5691,1.5687,1.5574,1.558,1.5538,1.5485,1.551,1.5519,1.5479,1.5584,1.5536,1.5548,1.5547,1.556,1.5579,1.5596,1.5376,1.5375,1.5374,0,0,1.6059,1.6018,1.6042,1.6006,1.5951,1.5895,1.5901,1.5827,1.5795,1.58,1.5714,1.5708,1.568,1.5645,1.5624,1.5738,1.5673,1.5734,1.5823,1.5841,1.5857,1.587,1.5911,1.5926,1.5741,1.5742,1.5742,0,1.6154,1.6146,1.6062,1.6068,1.6049,1.5946,1.5969,1.5938,1.5879,1.5868,1.5825,1.5788,1.5744,1.576,1.5788,1.5774,1.5777,1.5742,1.5862,1.5874,1.5885,1.5923,1.5938,1.5749,1.5749,1.5748,1.5747,0,1.6265,1.626,1.6286,1.6232,1.6215,1.623,1.6148,1.6142,1.6087,1.6035,1.6042,1.5986,1.5952,1.5951,1.5898,1.596,1.5937,1.588,1.5803,1.5913,1.5947,1.596,1.576,1.5758,1.5755,1.5753,0,0,1.6477,1.6376,1.6387,1.636,1.6291,1.6286,1.6296,1.6263,1.6259,1.6221,1.6226,1.6205,1.6151,1.6127,1.6068,1.6085,1.6178,1.6024,1.6022,1.6055,1.6242,1.6286,1.6304,1.6135,1.6137,1.6139,1.6246,0,1.659,1.6602,1.6527,1.6558,1.6552,1.6455,1.6463,1.6421,1.6373,1.6361,1.6307,1.6294,1.6224,1.6209,1.6221,1.6164,1.6214,1.6155,1.6138,1.6138,1.6154,1.6321,1.6367,1.6471,1.6259,1.6261,1.6263,0,1.6725,1.6695,1.6726,1.6655,1.6649,1.6659,1.6622,1.6612,1.6562,1.6526,1.65,1.6432,1.6436,1.6364,1.6367,1.6329,1.6317,1.6289,1.6291,1.6286,1.6207,1.632,1.6503,1.6519,1.6282,1.6281,1.6279,0,1.6876,1.6843,1.6857,1.6838,1.6755,1.6764,1.673,1.6677,1.6662,1.663,1.6619,1.6588,1.6571,1.6548,1.6474,1.6428,1.6486,1.6407,1.6455,1.6457,1.6471,1.6471,1.6654,1.6465,1.6465,1.6464,1.6464,0,1.7011,1.7033,1.6924,1.6933,1.6955,1.6868,1.6892,1.6848,1.6802,1.68,1.6714,1.6713,1.6615,1.6604,1.6546,1.6557,1.655,1.652,1.6505,1.6528,1.6532,1.6519,1.651,1.6468,1.6467,1.6467,1.6466,0,1.7183,1.7111,1.712,1.7041,1.7022,1.7042,1.6974,1.6978,1.6925,1.6923,1.6918,1.6834,1.6816,1.674,1.6704,1.6664,1.6695,1.6664,1.6712,1.6702,1.6754,1.675,1.6934,1.6954,1.6753,1.6755,1.6757,0,1.7274,1.7289,1.7212,1.7205,1.7175,1.7164,1.7148,1.7063,1.705,1.6995,1.7006,1.6981,1.6957,1.6932,1.6868,1.684,1.6807,1.6874,1.6802,1.6825,1.6808,1.6808,1.6808,1.6889,1.6892,1.6894,1.6896,0,1.7442,1.7406,1.7387,1.7356,1.7339,1.731,1.7276,1.7275,1.718,1.717,1.7151,1.7132,1.7095,1.7071,1.7032,1.6996,1.693,1.6919,1.6928,1.6952,1.6979,1.6965,1.6754,1.6915,1.6913,1.6911,1.691,1.691,1.7576,1.7585,1.7532,1.7514,1.7479,1.7449,1.7449,1.7396,1.7379,1.7343,1.7293,1.7281,1.7229,1.717,1.7139,1.7128,1.7091,1.7105,1.7108,1.7113,1.7124,1.6982,1.712,1.7119,1.7119,1.7118,1.7118,0,1.774,1.7701,1.7685,1.764,1.7626,1.7565,1.7524,1.7516,1.7506,1.7464,1.7442,1.742,1.7397,1.7331,1.73,1.7304,1.7273,1.7299,1.7297,1.729,1.7159,1.7154,1.7324,1.7324,1.7324,1.7324,1.7324,1.7324,1.7824,1.7835,1.7793,1.7786,1.7746,1.7734,1.7715,1.7687,1.7653,1.7633,1.7613,1.757,1.7518,1.7483,1.7459,1.744,1.7433,1.7469,1.744,1.7319,1.7299,1.728,1.7275,1.7468,1.7468,1.7571,1.7572,1.7573]}]]